This is the latest recevied weather packets stored in our database for station/object K4IR. If no packets are shown the sender has not sent any weather packets the latest 10 day(s).
| Time | Temp. | Humidity | Pressure | Rain* | Wind** | Luminosity | Snow |
|---|---|---|---|---|---|---|---|
| 1788363161 | 31.67° C | 68% | 1019 hPa | 0 mm | - | 114 W/m² | - |
| 1788362558 | 31.11° C | 67% | 1018.7 hPa | 0 mm | - | 120 W/m² | - |
| 1788361954 | 30.56° C | 68% | 1018.8 hPa | 0 mm | - | 211 W/m² | - |
| 1788361351 | 30.56° C | 68% | 1018.8 hPa | 0 mm | - | 88 W/m² | - |
| 1788360750 | 30° C | 67% | 1018.8 hPa | 0 mm | - | 80 W/m² | - |
| 1788360148 | 30° C | 73% | 1018.9 hPa | 0 mm | - | 128 W/m² | - |
| 1788359544 | 30° C | 73% | 1019 hPa | 0 mm | - | 188 W/m² | - |
| 1788358941 | 30° C | 74% | 1019 hPa | 0 mm | - | 281 W/m² | - |
| 1788358337 | 28.89° C | 76% | 1018.8 hPa | 0 mm | - | 424 W/m² | - |
| 1788357732 | 28.89° C | 76% | 1019 hPa | 0 mm | - | 255 W/m² | - |
| 1788357127 | 28.89° C | 78% | 1018.8 hPa | 0 mm | - | 271 W/m² | - |
| 1788356522 | 28.33° C | 80% | 1019 hPa | 0 mm | - | 75 W/m² | - |
| 1788355916 | 27.78° C | 85% | 1019 hPa | 0 mm | - | 73 W/m² | - |
| 1788355313 | 27.22° C | 85% | 1019.1 hPa | 0 mm | - | 75 W/m² | - |
| 1788354710 | 26.67° C | 92% | 1019.2 hPa | 0 mm | - | 117 W/m² | - |
| 1788354107 | 25.56° C | 97% | 1019.3 hPa | 0 mm | - | 202 W/m² | - |
| 1788353503 | 25.56° C | 98% | 1019.3 hPa | 0 mm | - | 148 W/m² | - |
| 1788352900 | 25° C | 99% | 1019.5 hPa | 0 mm | - | 116 W/m² | - |
| 1788352296 | 25° C | 99% | 1019.5 hPa | 0 mm | - | 158 W/m² | - |
| 1788351692 | 24.44° C | 99% | 1019.3 hPa | 0 mm | - | 65 W/m² | - |
| 1788351087 | 23.89° C | 99% | 1019.6 hPa | 0 mm | - | 54 W/m² | - |
| 1788350486 | 23.33° C | 99% | 1019.4 hPa | 0 mm | - | 66 W/m² | - |
| 1788349882 | 22.78° C | 99% | 1019.3 hPa | 0 mm | - | 39 W/m² | - |
| 1788349277 | 22.22° C | 99% | 1019.3 hPa | 0 mm | - | 34 W/m² | - |
| 1788348674 | 22.22° C | 99% | 1019.2 hPa | 0 mm | - | 28 W/m² | - |
* Rain latest hour (hover to see other rain measurements)
** Current wind speed in m/s (hover to see current wind gust speed)